Location: Cedar Falls
(42.5280°N, 92.4450°W)
Time: 15:59:10
(UTC-05:00)

NOSS 3-1 (C) - Visible Passes

Search period start: 01 September 2014 00:00
Search period end: 11 September 2014 00:00
Orbit: 897 x 1312 km, 63.4° (Epoch: 26 August)

Date Brightness Start Highest point End Pass type
(mag) Time Alt. Az. Time Alt. Az. Time Alt. Az.
01 Sep 5.7 21:26:30 10° WNW 21:32:42 28° WSW 21:39:11 10° SSW visible
02 Sep 5.1 20:40:43 10° NW 20:47:44 43° WSW 20:55:11 10° S visible
03 Sep 4.6 19:55:14 10° NW 20:02:39 64° WSW 20:10:36 10° SSE visible
03 Sep 6.5 21:49:35 10° W 21:52:27 12° WSW 21:55:22 10° SW visible
04 Sep 6.2 21:02:15 10° WNW 21:07:42 21° WSW 21:13:21 10° SSW visible
05 Sep 5.7 20:16:10 10° NW 20:22:48 34° WSW 20:29:48 10° S visible
07 Sep 6.5 20:38:19 10° WNW 20:42:39 16° WSW 20:47:07 10° SW visible
08 Sep 6.2 19:51:46 10° WNW 19:57:50 26° WSW 20:04:11 10° SSW visible
10 Sep 6.9 20:15:13 10° W 20:17:34 12° WSW 20:19:57 10° WSW visible
